This demonstration page uses our WeatherBlox Daily Observations layout. Learn more.

Left ArrowRight Arrow

41.12389, -100.76542

Hourly Observations for January 30, 2018

Temp ( °F °C ) Dew Point ( °F °C ) Humidity (%) Winds ( mph kmh ) Pressure ( in mb ) Visibility ( mi km ) Precip ( " mm )
12:53 am 00:53 Clear 19 -7.2 15 -9.4 84 84 ESE 5 7 30.29 1026 10 16 0.00 0.00
1:53 am 01:53 Clear 20 -6.7 16 -8.9 85 85 Calm 30.26 1025 10 16 0.00 0.00
2:53 am 02:53 Clear 22 -5.6 17 -8.3 82 82 Calm 30.22 1023 10 16 0.00 0.00
3:53 am 03:53 Clear 23 -5 18 -7.8 81 81 E 5 7 30.16 1021 10 16 0.00 0.00
4:53 am 04:53 Clear 22 -5.6 17 -8.3 82 82 E 6 9 30.13 1020 10 16 0.00 0.00
5:53 am 05:53 Clear 21 -6.1 16 -8.9 81 81 SE 8 13 30.11 1020 10 16 0.00 0.00
6:53 am 06:53 Clear 19 -7.2 15 -9.4 84 84 ESE 3 6 30.07 1018 10 16 0.00 0.00
7:53 am 07:53 Clear 19 -7.2 15 -9.4 84 84 Calm 30.07 1018 10 16 0.00 0.00
8:53 am 08:53 Sunny 24 -4.4 18 -7.8 77 77 SSW 5 7 30.05 1018 10 16 0.00 0.00
9:53 am 09:53 Sunny 26 -3.3 20 -6.7 78 78 VRB 5 7 30.02 1017 10 16 0.00 0.00
10:53 am 10:53 Sunny 30 -1.1 23 -5 75 75 S 5 7 29.98 1015 10 16 0.00 0.00
11:53 am 11:53 Sunny 37 2.8 26 -3.3 65 65 SSW 3 6 29.95 1014 10 16 0.00 0.00
12:53 pm 12:53 Sunny 41 5 29 -1.7 62 62 SSW 5 7 29.89 1012 10 16 0.00 0.00
1:53 pm 13:53 Sunny 43 6.1 30 -1.1 60 60 SW 8 13 29.83 1010 10 16 0.00 0.00
2:53 pm 14:53 Sunny 43 6.1 31 -0.6 63 63 SW 7 11 29.81 1010 10 16 0.00 0.00
3:53 pm 15:53 Sunny 46 7.8 32 0 58 58 WNW 3 6 29.78 1009 10 16 0.00 0.00
4:53 pm 16:53 Sunny 43 6.1 31 -0.6 63 63 Calm 29.78 1009 10 16 0.00 0.00
5:53 pm 17:53 Sunny 39 3.9 31 -0.6 73 73 Calm 29.78 1009 10 16 0.00 0.00
6:53 pm 18:53 Clear 37 2.8 30 -1.1 76 76 Calm 29.78 1009 10 16 0.00 0.00
7:53 pm 19:53 Clear 41 5 29 -1.7 62 62 Calm 29.77 1008 10 16 0.00 0.00
8:53 pm 20:53 Clear 38 3.3 30 -1.1 73 73 NW 6 9 29.76 1008 10 16 0.00 0.00
9:53 pm 21:53 Clear 36 2.2 30 -1.1 79 79 NW 7 11 29.76 1008 10 16 0.00 0.00
10:53 pm 22:53 Clear 35 1.7 29 -1.7 78 78 NW 3 6 29.75 1007 10 16 0.00 0.00
11:53 pm 23:53 Clear 36 2.2 28 -2.2 73 73 NW 8 13 29.80 1009 10 16 0.00 0.00

Powered by AerisWeather